Location: Cortada Guamacho
(10.5667°N, 67.0833°W)
Time: 02:54:05
(UTC+00:00)

Cosmos 2228 Rocket - Pass Details

Date: 04 July 2022
Orbit: 618 x 651 km, 82.5° (Epoch: 14 August)

Event Time Altitude Azimuth Distance (km) Brightness Sun altitude
Rises 07:42:32 0° 14° (NNE) 2,916 7.2 -32.8°
Reaches altitude 10° 07:45:03 10° 26° (NNE) 2,015 6.4 -32.3°
Maximum altitude 07:48:50 27° 85° (E) 1,225 5.0 -31.5°
Enters shadow 07:49:31 26° 100° (E) 1,259 4.9 -31.4°
